STARLINK-31914, 59902

Orbit data source: Space-Track

STARLINK-31914, 59902 is a payload satellite owned by SpaceX/Seattle (US) in LEO that was launched on Tue, 28 May 2024 UTC via an FALCON 9 launch vehicle from the Air Force Eastern Test Range (AFETR). Payload-class satellites include a variety of spacecraft equipped with specific instruments for various scientific and technological missions. These include communications satellites like Starlink; space stations such as the ISS; scientific satellites like the Hubble; Earth observation satellites from companies like Planet Labs, Umbra, and HawkEye 360; GPS; miniature CubeSats for education and research; and military/defense satellites.

Loading next visibility...
Identifier
59902, 2024-100T
Orbit
LEO
Country
Flag of USUS
Related business
Manufacturer
SpaceX/Seattle
Mission
Operational Commercial Communications
Bus & Motor
STARLINK V2M, Unknown motor
Mass
730 kg wet, ~700 kg dry
Launch date (UTC)
2024-05-28 (2 years ago)
Launch vehicle
FALCON 9
Launch site
Air Force Eastern Test Range (AFETR)
Object type
Payload
Rocket body
Debris
Shape & HBR
Box + 2 Pan, 17.7 m
Radar Cross Section
33.884 m², Large (>1 m²)

Expand to show TLE details & history
Last TLE update: 1 day ago

TLE from 1 day ago
0 STARLINK-31914
1 59902U 24100T   25354.04567208 -.00000133  00000-0  46969-5 0  9990
2 59902  42.9967 215.4170 0001075  30.0462 330.0451 15.27576315 88860
Epoch: 2025-12-20T01:05Z
TLE epoch observation values (Epoch: 2025-12-20T01:05:46.067Z)
Latitude
-0.00004°
Longitude
110.09691°
Altitude
482.196 km
Speed
7.627 km/s
True Right ascension
14h 21m 40s
True Declination
0° 00' 00"
Sunlit
Object was in daylight at epoch
Visualization orbit readout
Latitude
Unknown
Longitude
Unknown
Altitude
Unknown
Speed
Unknown
Apparent Right ascension
Unknown
Apparent Declination
Unknown
Sunlit
N/A
Visualization observer readout
Local Sidereal Time
02:23:46
Azimuth
Unknown
Elevation
Unknown
Doppler factor
Unknown
Orbital elements
Apogee altitude
485.744 km
Perigee altitude
484.268 km
Semi-major axis
6,863.143 km
Eccentricity
0.00011
Inclination
42.9967°
RAAN
215.417°
Arg. of periapsis
30.0462°
True anomaly
330.03895°
Mean anomaly
330.0451°
Eccentric anomaly
330.04202°
Mean motion
3.81732 °/min
Orbital period
94.31 mins
BSTAR
0.0000046969
Loading maneuver chart data...
Computing Atmospheric mass density...
Loading historical data...
Loading historical data...
Loading historical data...
Loading historical data...
Loading historical data...
Loading historical data...
Loading historical data...

Documentation

Showing up to 5 results
|